Location: Recife
(8.0585°S, 34.8848°W)
Time: 22:06:52
(UTC-03:00)

Altair - Pass Details

Date: 17 April 2026
Orbit: 1501 x 1682 km, 47.2° (Epoch: 17 May)

Event Time Altitude Azimuth Distance (km) Brightness Sun altitude
Rises 22:01:47 0° 304° (NW) 4,645 10.3 -70.8°
Enters shadow 22:01:51 - 304° (NW) 4,624 10.3 -70.8°
Reaches altitude 10° 22:04:58 10° 298° (WNW) 3,654 - -71.5°
Maximum altitude 22:13:37 46° 227° (SW) 1,928 - -73.6°
Drops below altitude 10° 22:22:21 10° 156° (SSE) 3,678 - -75.8°
Sets 22:25:36 0° 150° (SSE) 4,677 - -76.6°
